Regional Weather Roundup
Issued by NWS

Home | Current Version | Previous Version | Text Only | Print | Product List | Glossary Off
Versions: 1 2 3 4 5 6 7 8 9 10 11 12 13 14 15 16 17 18 19 20 21 22 23 24 25 26 27 28 29 30 31 32 33 34 35 36 37 38 39 40 41 42 43 44 45 46 47 48 49 50

747
ASUS44 KJAN 271503
RWRMS

MISSISSIPPI HOURLY WEATHER ROUNDUP
NATIONAL WEATHER SERVICE JACKSON MS
900 AM CST FRI FEB 27 2015

NOTE: "FAIR: INDICATES FEW OR NO CLOUDS BELOW 12,000 FEET WITH NO
SIGNIFICANT WEATHER AND/OR OBSTRUCTIONS TO VISIBILITY.

MSZ001>002-007>008-010>013-018>021-025>028-034>036-271600-
NORTHWEST MISSISSIPPI

CITY           SKY/WX    TMP DP  RH WIND       PRES   REMARKS
CLARKSDALE     FAIR      25  16  68 N14G22    30.58R WCI  13
CLEVELAND      FAIR      27  19  73 NE18      30.56R WCI  13
GREENWOOD        N/A    N/A N/A N/A MISG      30.53R
GREENVILLE     CLOUDY    27  18  69 NE18      30.55R WCI  14
OLIVE BRANCH   MOSUNNY   21  18  86 N12G17    30.57R WCI   9
OXFORD         FAIR      25  16  68 NE10      30.55R WCI  15
TUNICA         SUNNY     27  18  69 N16       30.59R WCI  14
$$

MSZ003>006-009-014>017-022>024-029>033-037>039-271600-
NORTHEAST MISSISSIPPI

CITY           SKY/WX    TMP DP  RH WIND       PRES   REMARKS
COLUMBUS AFB   MOSUNNY   31  18  57 N12       30.50R WCI  22
CORINTH        FAIR      28  10  47 NE12      30.55R WCI  18
GOLDN TRIANGLE MOSUNNY   34  21  60 NE12G21   30.48R WCI  25
STARKVILLE     CLOUDY    32  23  69 N13       30.50R WCI  22
TUPELO         PTSUNNY   28  15  58 NE15G22   30.53R WCI  16
$$

MSZ040-058-271600-
CENTRAL MISSISSIPPI

CITY           SKY/WX    TMP DP  RH WIND       PRES   REMARKS
JACKSON INTL   CLOUDY    31  23  72 NE12      30.47R WCI  22
JACKSON HAWKNS CLOUDY    31  23  72 NE9       30.47R WCI  23
MERIDIAN KEY   CLOUDY    32  24  72 N13       30.47R WCI  22
MERIDIAN NAS   PTSUNNY   33  22  63 NE14G21   30.48R WCI  23
VICKSBURG      CLOUDY    29  22  75 NE12      30.52R WCI  19
$$

MSZ059>079-271600-
SOUTH MISSISSIPPI

CITY           SKY/WX    TMP DP  RH WIND       PRES   REMARKS
BROOKHAVEN     CLOUDY    32  30  93 N6        30.45R WCI  26
HATTIESBURG    CLOUDY    35  29  78 N9        30.45R WCI  28
MCCOMB         CLOUDY    34  26  72 NE8       30.42R WCI  27
NATCHEZ        CLOUDY    32  25  74 NE9       30.47R WCI  24
PINE BELT      CLOUDY    34  25  69 N12       30.44R WCI  25
$$

MSZ080>082-271600-
COASTAL MISSISSIPPI

CITY           SKY/WX    TMP DP  RH WIND       PRES   REMARKS
BAY ST LOUIS   SUNNY     37  27  65 NE12G17   30.41R WCI  30
BILOXI         SUNNY     39  30  70 NE16G23   30.38F WCI  30
PASCAGOULA     SUNNY     40  30  67 N14       30.39F WCI  32
GULFPORT       SUNNY     38  29  70 N15G26    30.38F WCI  29
$$



USA.gov is the U.S. government's official web portal to all federal, state and local government web resources and services.